Hourly Data Report for October 04, 2017

All times are specified in Local Standard Time (LST). Add 1 hour to adjust for Daylight Saving Time where and when it is observed.

SWAN RIVER RCS
MANITOBA

52°06'53.900" N
101°13'58.500" W
334.80 m
504K80K
71443
WEQ

Download Data

Hourly Data (October 2017)
Hourly Data Report for October 4, 2017
Temp Definition
°C
Dew Point Temp Definition
°C
Rel Hum Definition
%
Wind Dir Definition
10's deg

Wind Spd Definition
km/h
Visibility Definition
km
Stn Press Definition
kPa
Hmdx Definition


Wind Chill Definition


Weather Definition


TIME
00:00 3.2 1.8 91 25 18   98.14     LegendNANA
01:00 3.8 2.7 93 23 17   98.06     LegendNANA
02:00 3.7 2.0 89 23 19   98.07     LegendNANA
03:00 4.1 2.3 88 24 21   98.05     LegendNANA
04:00 3.9 2.2 89 22 28   97.94     LegendNANA
05:00 4.5 1.7 82 23 22   97.90     LegendNANA
06:00 4.6 1.4 80 24 23   97.85     LegendNANA
07:00 4.4 1.5 81 24 22   97.82     LegendNANA
08:00 4.4 0.9 78 24 26   97.81     LegendNANA
09:00 5.7 0.7 70 25 24   97.86     LegendNANA
10:00 6.6 0.6 65 24 21   97.86     LegendNANA
11:00 8.3 0.5 58 25 26   97.85     LegendNANA
12:00 9.6 0.8 54 25 25   97.85     LegendNANA
13:00 10.6 1.5 53 23 24   97.82     LegendNANA
14:00 11.7 1.1 48 24 21   97.80     LegendNANA
15:00 12.6 2.1 49 23 21   97.77     LegendNANA
16:00 13.2 2.1 47 24 18   97.80     LegendNANA
17:00 12.5 0.6 44 31 19   97.82     LegendNANA
18:00 10.5 1.6 54 31 10   97.86     LegendNANA
19:00 7.1 1.0 65 29 5   97.89     LegendNANA
20:00 5.5 2.1 79 28 3   97.93     LegendNANA
21:00 5.8 1.3 73 6 8   97.99     LegendNANA
22:00 3.5 0.3 79 7 3   98.05     LegendNANA
23:00 2.0 0.6 91 29 2   98.07     LegendNANA

Notes on Data Quality.

Legend

  • E = Estimated
  • M = Missing
  • NA = Not Available
  • ‡ = Partner data that is not subject to review by the National Climate Archives
Date modified: